Voltar ao catálogo

SYMPHONIE 1

AtivoComunicaçõesGEO
NORAD 7578·PAYLOAD·🇩🇪 Germany

Lançado Dec 19, 1974 de Cape Canaveral Space Force Station

Loading…

TLE

AtualizadoSource: Space-Track

Época: Sep 14, 2026, 16:36 UTC

1 07578U 74101A   26257.69186583 -.00000017  00000-0  00000-0 0  9997
2 07578   4.3524 275.9056 0002973 326.1467 180.2782  0.99964082118095

Acompanhe SYMPHONIE 1 em tempo real com AllMySat

Download on the App Store